,

(GMT )
Holesov

Weather History for LKHO - June, 2014

Change the Weather History Date:

Monday, June 9, 2014

  Actual Average Record
Temperature  
Mean Temperature 72 °F -  
Max Temperature 91 °F - - ()
Min Temperature 53 °F - - ()
Cooling Degree Days 7    
Growing Degree Days 22 (Base 50)    
Moisture  
Dew Point 53 °F    
Average Humidity 46    
Maximum Humidity 84    
Minimum Humidity 14    
Precipitation  
Precipitation 0.00 in - - ()
Sea Level Pressure  
Sea Level Pressure 30.12 in    
Wind  
Wind Speed 3 mph ()    
Max Wind Speed 7 mph    
Max Gust Speed -    
Visibility 12.6 miles    
Events      
T = Trace of Precipitation, MM = Missing Value Source: Averaged Metar Reports

Daily Weather History Graph

Daily Weather History Graph

Search for Another Location

Airport or City:

Trip Planner

Search our weather history database for the weather conditions in past years. The results will help you decide how hot, cold, wet, or windy it might be!

Date:

Astronomy

Jun. 09, 2014 Rise Set
Actual Time 4:44 AM CEST 8:53 PM CEST
Civil Twilight 4:01 AM CEST 9:36 PM CEST
Nautical Twilight 3:01 AM CEST 10:37 PM CEST
Astronomical Twilight 1:21 AM CEST 12:16 AM CEST
Moon 4:36 PM CEST (6/9) 2:23 AM CEST (6/9)
Length of Visible Light 17h 34m
Length of Day
16h 08m
Waxing Gibbous, 83% of the Moon is Illuminated
Jun 9
Waxing Gibbous
Jun 13
Full
Jun 19
Last Quarter
Jun 27
New
Jul 5
First Quarter

Hourly Weather History & Observations

Time (CEST) Temp. Dew Point Humidity Pressure Visibility Wind Dir Wind Speed Gust Speed Precip Events Conditions
12:00 AM 60 °F 53 °F 72% 30.17 in 12 mi SSE 4.5 mph - -  
1:00 AM 59 °F 52 °F 71% 30.17 in 12 mi ESE 2.2 mph - -  
2:00 AM 57 °F 51 °F 76% 30.16 in 12 mi NE 4.5 mph - -   Clear
3:00 AM 56 °F 51 °F 77% 30.16 in 12 mi East 2.2 mph - -  
4:00 AM 56 °F 51 °F 78% 30.16 in 12 mi ENE 2.2 mph - -  
5:00 AM 53 °F 50 °F 84% 30.17 in 12 mi SSW 2.2 mph - -  
6:00 AM 57 °F 52 °F 79% 30.17 in 12 mi ESE 2.2 mph - -  
7:00 AM 64 °F 56 °F 67% 30.16 in 12 mi SSE 2.2 mph - -  
8:00 AM 67 °F 55 °F 56% 30.16 in 19 mi South 2.2 mph - -   Partly Cloudy
9:00 AM 73 °F 55 °F 44% 30.15 in 22 mi WSW 2.2 mph - -   Clear
10:00 AM 78 °F 57 °F 39% 30.14 in 25 mi WNW 2.2 mph - -   Clear
11:00 AM 83 °F 53 °F 25% 30.13 in 31 mi SSW 2.2 mph - -   Clear
12:00 PM 85 °F 48 °F 18% 30.12 in 31 mi West 4.5 mph - -   Scattered Clouds
1:00 PM 86 °F 49 °F 18% 30.11 in 31 mi NW 4.5 mph - -   Scattered Clouds
2:00 PM 88 °F 50 °F 17% 30.10 in 31 mi West 4.5 mph - -   Scattered Clouds
3:00 PM 90 °F 47 °F 14% 30.09 in 31 mi WNW 6.7 mph - -   Scattered Clouds
4:00 PM 90 °F 48 °F 15% 30.07 in 31 mi West 4.5 mph - -   Scattered Clouds
5:00 PM 91 °F 51 °F 16% 30.06 in 31 mi WNW 4.5 mph - -   Scattered Clouds
6:00 PM 90 °F 52 °F 18% 30.05 in 12 mi WNW 2.2 mph - -  
7:00 PM 89 °F 53 °F 19% 30.05 in 31 mi WSW 2.2 mph - -   Partly Cloudy
8:00 PM 84 °F 55 °F 27% 30.05 in 31 mi East 2.2 mph - -   Partly Cloudy
9:00 PM 71 °F 60 °F 60% 30.08 in 31 mi East 2.2 mph - -   Clear
10:00 PM 67 °F 56 °F 60% 30.10 in 25 mi ESE 4.5 mph - -   Clear
11:00 PM 66 °F 56 °F 63% 30.11 in 12 mi East 2.2 mph - -   Clear